Wind_Speed
19 17 18 20 20 27 33 34 35 35 36 37 41 44 44 44 44 42 41 37 33 33 31 28 23 22 23 22 19 16 14 14 14
17 20 20 22 22 31 32 35 39 40 38 39 40 43 44 42 42 42 40 40 34 32 29 28 25 23 23 24 22 19 18 17 17
15 20 19 20 21 30 36 39 37 38 41 41 42 44 42 42 42 45 43 41 37 33 31 27 25 23 25 26 25 24 22 22 20
16 18 20 21 23 35 37 34 37 37 39 39 38 38 39 36 38 40 40 41 40 36 32 31 28 26 23 26 27 27 27 25 23
18 19 21 22 23 27 31 37 38 39 37 37 40 41 40 41 40 38 38 40 42 38 35 31 32 28 26 27 28 28 27 29 27
8 10 11 15 15 18 26 33 36 38 37 39 38 36 37 36 35 36 38 39 42 40 37 35 33 32 32 32 30 29 28 27 29
9 9 13 16 16 19 27 33 36 37 36 38 37 36 36 35 36 37 38 40 41 41 39 37 36 36 35 33 33 31 30 29 29
10 15 13 16 19 19 20 29 30 33 34 38 38 37 35 37 37 39 39 40 41 41 41 40 38 38 38 37 35 33 31 32 32
8 12 16 19 22 22 21 29 34 36 36 37 38 36 36 37 37 38 41 41 41 40 40 40 40 41 41 41 41 40 39 37 35
12 14 14 17 23 22 21 33 37 35 38 37 38 37 36 35 34 36 37 38 37 39 40 36 39 40 39 42 44 43 41 41 41
14 16 13 10 16 18 30 34 36 29 33 36 37 34 32 34 35 34 33 32 34 35 34 37 38 37 39 39 42 44 44 43 42
13 13 9 7 11 14 24 28 30 30 31 32 31 32 34 35 36 34 33 34 34 35 32 33 36 37 37 38 39 39 39 39 41
18 16 13 7 18 24 25 26 28 28 28 29 30 33 34 32 34 36 35 38 36 34 32 33 30 31 34 38 39 38 38 38 39
16 18 18 19 15 13 22 33 32 25 25 29 29 25 28 33 37 38 38 32 31 29 29 26 27 29 31 34 35 36 35 35 39
19 20 22 27 17 14 10 22 26 21 21 20 25 30 32 33 34 32 29 31 29 29 28 27 26 26 25 29 32 32 32 32 36
14 16 21 26 21 20 21 18 21 18 8 13 21 27 32 33 32 33 31 31 28 26 29 26 25 23 23 24 27 32 32 31 32
12 15 18 23 23 20 19 23 24 18 14 12 16 20 23 27 29 28 28 27 28 27 26 25 24 24 24 23 23 27 28 28 30
10 13 20 21 18 17 18 16 18 17 15 13 15 12 10 13 21 26 26 25 25 25 26 27 25 26 23 20 20 29 25 24 25
11 13 20 21 21 20 23 19 16 15 14 13 9 7 5 4 5 12 22 26 20 25 26 26 28 23 21 24 25 18 15 16 20
16 19 22 20 18 21 23 21 19 18 15 13 11 7 5 1 3 8 15 19 20 16 8 21 23 22 20 18 16 13 14 15 17
Wind_Direction
206 202 204 208 206 201 201 199 201 199 202 204 206 210 215 221 221 224 230 233 234 231 230 230 229 233 234 237 238 238 239 237 238
199 200 199 202 205 207 205 199 200 200 200 204 205 208 213 215 218 221 226 232 233 231 228 227 232 238 239 239 238 240 239 238 236
205 206 206 201 199 201 204 205 199 199 203 203 205 209 209 212 215 222 225 231 231 230 228 225 228 237 241 244 244 243 240 241 241
207 197 200 200 199 203 201 200 199 198 199 201 203 205 206 207 212 218 220 227 231 231 231 227 227 234 239 243 246 247 243 243 244
205 202 201 202 203 196 193 194 196 198 196 198 201 204 204 207 211 212 215 221 231 232 232 229 226 229 235 242 247 248 247 242 243
194 205 207 210 204 198 197 194 191 194 194 197 198 199 200 203 205 206 211 217 227 231 232 230 227 229 233 239 245 248 250 247 244
265 216 205 206 202 200 203 192 189 191 194 194 194 195 196 198 201 205 210 216 222 230 230 230 229 229 232 235 238 245 248 250 250
256 249 235 213 204 199 196 196 183 188 190 192 191 192 194 199 201 205 210 215 220 226 230 231 230 231 230 232 234 239 244 248 251
286 250 226 217 203 195 188 190 187 183 186 186 186 190 195 198 199 201 208 214 217 220 225 230 232 233 233 233 234 237 240 245 249
329 313 286 217 198 190 186 188 186 182 182 179 185 190 195 195 197 200 205 210 212 218 220 221 227 231 232 234 236 238 239 240 244
337 320 307 207 190 186 188 186 187 175 172 178 183 190 190 193 196 200 204 205 210 217 218 220 223 226 230 233 238 241 242 242 244
332 330 307 263 167 172 167 175 175 167 171 176 180 187 191 193 194 197 199 203 209 215 216 220 224 228 230 233 238 241 243 242 240
348 354 6 341 133 144 150 160 164 161 169 176 184 192 194 193 195 199 200 207 209 211 215 220 222 225 230 236 239 244 243 239 238
1 7 14 21 63 115 153 162 164 165 171 188 191 188 191 196 202 204 209 207 209 207 211 215 219 225 230 236 240 244 246 242 236
7 9 15 19 33 46 127 161 161 162 178 190 191 194 196 200 204 203 205 206 205 207 207 210 216 220 226 232 238 243 245 244 240
8 17 18 18 23 38 61 107 139 128 143 168 185 194 199 208 209 207 203 202 201 199 204 208 214 216 223 228 232 238 245 250 249
10 14 17 16 21 22 26 67 89 99 103 126 174 188 198 205 207 204 202 202 204 203 203 205 211 214 219 224 226 230 240 244 247
3 8 11 15 17 18 13 38 65 74 82 96 99 107 136 177 204 209 206 204 206 208 215 213 212 218 213 209 219 233 245 246 243
356 2 11 13 14 15 12 25 36 46 55 58 67 88 106 122 173 196 202 202 203 216 219 221 225 228 234 233 239 247 247 243 246
340 359 9 8 12 14 15 15 27 27 24 24 16 6 356 322 208 198 199 203 200 193 213 236 231 229 222 229 240 233 229 229 231
Height
714 725 731 737 743 748 753 760 768 773 780 786 791 795 801 807 813 817 822 826 830 833 837 841 845 849 852 855 858 860 862 863 865
711 714 719 724 732 740 747 751 756 763 770 778 783 788 794 800 806 811 815 820 825 829 832 837 842 846 849 852 855 857 859 861 862
702 705 710 716 720 727 733 740 748 756 763 768 774 780 787 793 799 804 810 815 820 825 829 834 838 842 845 847 850 853 855 857 860
691 695 698 701 706 711 720 733 740 746 754 761 768 774 780 787 793 798 804 808 814 819 825 829 834 838 840 842 845 847 851 853 856
679 680 684 689 694 703 712 717 727 735 744 752 758 765 772 778 786 792 797 802 807 814 818 824 828 832 836 838 839 842 845 848 850
678 679 682 686 695 699 702 708 716 725 733 740 750 759 766 773 779 785 790 796 801 806 813 818 822 826 829 832 834 836 839 842 845
676 677 675 676 683 687 693 698 706 715 725 734 743 752 758 765 771 776 782 788 794 799 805 810 814 817 821 824 828 830 833 836 839
682 676 671 669 671 675 682 693 699 709 718 726 734 743 750 756 762 768 775 781 785 790 796 801 806 809 813 817 821 824 827 830 832
678 672 665 659 657 662 671 681 686 696 706 717 727 735 741 749 755 761 766 772 777 782 787 792 797 801 805 808 811 815 820 823 825
670 661 653 646 645 651 659 668 677 686 695 708 718 725 732 741 748 753 759 765 771 774 778 784 788 792 797 799 802 806 810 815 818
671 661 651 636 639 643 650 662 671 684 693 701 710 717 726 733 740 746 753 759 762 767 773 776 780 784 788 791 793 797 801 805 809
671 661 648 638 635 644 651 660 671 679 689 697 704 711 716 723 731 739 746 750 754 759 765 769 772 776 780 783 785 789 793 798 800
664 653 644 639 633 641 652 661 670 676 684 691 696 702 708 718 725 730 735 739 744 751 756 760 766 770 772 774 776 780 783 788 791
668 658 650 645 642 644 650 658 666 674 681 683 689 701 707 714 719 722 727 733 739 745 750 755 759 762 765 767 769 771 775 778 781
675 667 660 657 656 654 654 658 663 671 677 684 690 696 702 707 712 717 723 727 733 738 743 748 752 755 757 759 761 763 766 769 771
689 684 677 672 668 667 663 664 667 673 679 683 689 694 698 702 707 711 715 720 726 731 735 739 743 747 749 751 752 754 757 759 761
694 689 686 683 680 679 679 676 675 678 682 684 685 689 693 697 701 706 711 715 719 723 726 730 734 737 739 742 744 746 749 751 754
702 699 695 692 690 689 690 687 685 685 685 685 686 690 692 693 697 701 704 710 713 716 719 721 724 726 730 734 737 737 740 743 747
707 704 700 697 696 696 694 693 692 690 689 689 690 691 692 693 695 697 699 703 707 710 713 716 719 723 724 728 731 732 735 738 741
713 708 706 705 704 701 698 698 696 693 693 693 692 693 693 694 695 697 698 700 702 705 708 711 715 719 720 723 725 727 730 733 736